OpenBCM V1.13 (Linux)

Packet Radio Mailbox

DB0FHN

[JN59NK Nuernberg]

 Login: GUEST





  
I0OJJ  > KEPS     18.02.26 02:33l 310 Lines 14722 Bytes #999 (0) @ AMSAT
BID : ORB26049.1
Read: OE5RCO DJ6UX GUEST
Subj: 2Line Orbital Elements 26049.AMSAT
Path: DB0FHN<DB0RKB<DK0WUE<PD0LPM<IR0AAB<I0OJJ
Sent: 260218/0021z @:I0OJJ.ITA.EU [Rome] obcm1.13-38-g65b7
From: I0OJJ @ I0OJJ.ITA.EU (Gustavo)
To:   KEPS @ AMSAT
X-Info: This message was generated automatically


QST de W1STR

AMSAT Orbital Elements for Amateur Satellites in TLE Format
From Orbital Analysis Office
New England Sci-Tech STEM Education Center
Natick MA February 18, 2026
To all radio amateurs


These element sets describe the orbits of various satellites 
in use by the amateur radio community. For details see:
www.amsat.org/keplerian-elements-formats/

A daily update of element sets is available at:
www.amsat.org/tle/daily-bulletin.txt
or without bulletin text:
www.amsat.org/tle/dailytle.txt


AO-07
1 07530U 74089B   26048.54055838 -.00000041  00000-0  34865-4 0  9997
2 07530 101.9972  60.5136 0012192   1.0116 125.9104 12.53695960345528
UO-11
1 14781U 84021B   26048.46611017  .00001722  00000-0  18238-3 0  9999
2 14781  97.7912  15.5090 0006605 210.4276 149.6560 14.90428437239295
AO-27
1 22825U 93061C   26048.70835915  .00000107  00000-0  57806-4 0  9994
2 22825  98.7025 116.0988 0009537  91.7482 268.4792 14.30906008689912
FO-29
1 24278U 96046B   26048.61110514  .00000034  00000-0  68518-4 0  9996
2 24278  98.5410 273.7438 0350591  46.8069 316.1801 13.53267356456996
GO-32
1 25397U 98043D   26048.57997623  .00000062  00000-0  47054-4 0  9990
2 25397  99.0003  38.3639 0001305 152.4466 207.6782 14.24400114434305
ISS
1 25544U 98067A   26048.57003830  .00008013  00000-0  15504-3 0  9996
2 25544  51.6323 171.8070 0011023 108.2943 251.9246 15.48664181553219
NO-44
1 26931U 01043C   26048.79142422  .00000155  00000-0  88986-4 0  9994
2 26931  67.0498 193.0714 0007015 265.6772  94.3528 14.31900424273359
SO-50
1 27607U 02058C   26048.65330747  .00001496  00000-0  19453-3 0  9997
2 27607  64.5520 138.7357 0074723 284.2983  74.9833 14.82699361246734
CO-55
1 27844U 03031E   26048.54202103  .00000308  00000-0  15225-3 0  9998
2 27844  98.6779  58.5915 0009801 166.5919 193.5522 14.24248294174640
CO-57
1 27848U 03031J   26048.54120992  .00000258  00000-0  13275-3 0  9994
2 27848  98.6806  58.3998 0009336 184.5960 175.5135 14.23546181174356
RS-22
1 27939U 03042A   26048.89736679  .00001944  00000-0  30948-3 0  9999
2 27939  98.3407 229.9103 0010253 289.5813 178.9370 14.73196305197984
CO-58
1 28895U 05043F   26048.39486817  .00002113  00000-0  34276-3 0  9992
2 28895  98.2790 201.6415 0013564 222.3829 137.6331 14.72224229 84129
CO-65
1 32785U 08021C   26048.87629390  .00006551  00000-0  42863-3 0  9993
2 32785  97.8176  28.0024 0011133  77.0851 283.1620 15.08066758967200
CO-66
1 32791U 08021J   26048.49710859  .00021545  00000-0  78619-3 0  9997
2 32791  97.7495  41.1059 0004555  48.3308 311.8320 15.28157555968982
RS-30
1 32953U 08025A   26048.82965530  .00000099  00000-0  64119-3 0  9997
2 32953  82.4982  69.6845 0018847 208.9797 151.0238 12.43175538804860
SRMSAT
1 37841U 11058D   26048.41578391  .00000434  00000-0  91768-4 0  9992
2 37841  19.9724  64.4072 0011585 327.1847 174.3060 14.11539745740879
ZACUBE-1
1 39417U 13066B   26048.85375867  .00005231  00000-0  41750-3 0  9990
2 39417  97.8195  10.5813 0040535 288.3128  71.3687 15.00090045662833
Delfi-N3xt
1 39428U 13066N   26048.78174605  .00007595  00000-0  69081-3 0  9993
2 39428  97.8354 329.3597 0075239 243.3101 116.0402 14.93332792656792
GOMX-1
1 39430U 13066Q   26048.79990785  .00002193  00000-0  33556-3 0  9999
2 39430  97.6575 256.7446 0130817 100.7525 260.8440 14.69013262652386
LO-74
1 39440U 13066AA  26048.79017131  .00004865  00000-0  46078-3 0  9996
2 39440  97.8789 357.4403 0060547  63.8596 296.8834 14.92693631659177
AO-73
1 39444U 13066AE  26048.33237120  .00010552  00000-0  68893-3 0  9991
2 39444  97.8148  17.5363 0035856 250.6585 109.0763 15.07502318661591
DTUSAT-2
1 40030U 14033W   26048.49236864  .00009582  00000-0  54436-3 0  9999
2 40030  98.0827  38.8146 0006127 289.0280  71.0286 15.13130539634578
EO-80
1 40032U 14033Y   26048.82871721  .00008104  00000-0  45938-3 0  9991
2 40032  98.0709  38.4745 0006333 208.5474 151.5410 15.13264280634608
LILACSAT-2
1 40908U 15049K   26048.85882521  .00015937  00000-0  31437-3 0  9995
2 40908  97.4837  81.4036 0006532 339.0284  21.0697 15.47251010577277
Horyu-4
1 41340U 16012D   26048.64578222  .00068044  00000-0  82205-3 0  9990
2 41340  30.9905 207.8112 0000814 224.6099 135.4487 15.59384843551975
Lapan A3
1 41603U 16040E   26048.84590133  .00003899  00000-0  12757-3 0  9992
2 41603  97.1463  49.0061 0012525  84.8503 275.4169 15.32193133536536
CAS-2T
1 41847U 16066G   26048.68737293  .00001490  00000-0  21653-3 0  9992
2 41847  98.3927 125.7549 0343769 131.9547 231.1489 14.44397445487540
TechnoSat
1 42829U 17042E   26048.40465841  .00005216  00000-0  37950-3 0  9992
2 42829  97.4093 210.7908 0018531 141.0807 219.1757 15.04078460468695
AO-91
1 43017U 17073E   26048.59109706  .00009571  00000-0  43590-3 0  9996
2 43017  97.4887 278.3146 0157573  21.3777 339.3937 15.10393845447322
S-Net D
1 43186U 18014G   26048.80016376  .00005890  00000-0  31553-3 0  9999
2 43186  97.5465 314.3867 0010307  74.8568 285.3803 15.15346851440670
S-Net B
1 43187U 18014H   26048.67729373  .00006073  00000-0  32543-3 0  9997
2 43187  97.5470 314.2476 0010898  70.8333 289.4078 15.15316846440651
S-Net A
1 43188U 18014J   26048.66753101  .00005861  00000-0  31391-3 0  9997
2 43188  97.5481 314.4250 0010817  71.9094 288.3315 15.15351025440653
S-Net C
1 43189U 18014K   26048.68054350  .00006112  00000-0  32748-3 0  9997
2 43189  97.5496 314.4941 0012115  64.8582 295.3905 15.15308880439206
Ten-Koh
1 43677U 18084G   26048.46151980  .00003926  00000-0  30182-3 0  9999
2 43677  98.0764 235.8021 0009957 158.1792 201.9858 15.02315591398181
PO-101
1 43678U 18084H   26048.84201568  .00002580  00000-0  21334-3 0  9994
2 43678  98.1041 240.0642 0009826 188.3986 171.7074 14.99856835398329
QO-100
1 43700U 18090A   26048.34419779  .00000149  00000-0  00000-0 0  9990
2 43700   0.0348 257.1809 0002453 111.2693 288.5783  1.00272281 26473
MinXSS-2
1 43758U 18099A   26048.69802712  .00026143  00000-0  67857-3 0  9991
2 43758  97.4674 122.1386 0007903 341.2949  18.8005 15.38931861395701
AO-95
1 43770U 18099N   26048.68439228  .00010604  00000-0  44189-3 0  9990
2 43770  97.4556 109.5219 0010191  55.4663 304.7535 15.23847912395003
SNUSat 2
1 43782U 18099AA  26048.45584132  .00009689  00000-0  45534-3 0  9999
2 43782  97.4241 103.7497 0010498   3.6892 356.4419 15.19756068394831
SnugLite
1 43784U 18099AC  26048.65394815  .00010851  00000-0  44719-3 0  9997
2 43784  97.4050 104.2523 0002915  21.4670 338.6689 15.24258066395095
ITASat 1
1 43786U 18099AE  26048.66279332  .00006549  00000-0  33084-3 0  9998
2 43786  97.4212 102.5978 0014204  54.4286 305.8269 15.17326970394771
EAGLET 1
1 43790U 18099AJ  26048.70050590  .00004444  00000-0  26283-3 0  9996
2 43790  97.4411 101.5135 0012355  44.6404 315.5819 15.11894664394277
ESEO
1 43792U 18099AL  26048.69410174  .00001180  00000-0  89876-4 0  9996
2 43792  97.4147  91.1289 0013081  29.6820 330.5146 15.03824942393846
JO-97
1 43803U 18099AX  26048.67183267  .00015092  00000-0  52960-3 0  9997
2 43803  97.4301 111.3561 0005449 346.7980  13.3116 15.29505922395339
Suomi 100
1 43804U 18099AY  26048.67880413  .00011467  00000-0  45611-3 0  9992
2 43804  97.4361 109.6745 0009953 349.9632  10.1405 15.25397499395186
ISAT
1 43879U 18111D   26048.57836699  .00045540  00000-0  85128-3 0  9991
2 43879  97.5912 336.2762 0007426  44.6266 315.5581 15.48579645392569
UWE-4
1 43880U 18111E   26048.71711615  .00026897  00000-0  70539-3 0  9993
2 43880  97.5866 332.3037 0011072  46.0985 314.1172 15.38578544392362
Sparrow
1 43881U 18111F   26048.31759469  .00066075  00000-0  10993-2 0  9998
2 43881  97.6119 340.2153 0007786  73.2007 287.0098 15.51795297392665
Prox-1
1 44339U 19036A   26048.71262842  .00013498  00000-0  14264-2 0  9998
2 44339  23.9941 190.4520 0007587  89.2560 270.8808 14.87382762355645
Taurus 1
1 44530U 19059C   26048.82683185  .00010079  00000-0  16694-2 0  9996
2 44530  98.6267 206.4655 0008161 323.4976  36.5671 14.70458449341095
TO-108
1 44881U 19093C   26048.82574627  .00001432  00000-0  16844-3 0  9994
2 44881  97.7655 123.9307 0014856 116.8577 243.4159 14.86294156333687
FloripaSat 1
1 44885U 19093G   26048.80493509  .00007735  00000-0  58771-3 0  9992
2 44885  97.7915 142.3100 0012094 113.6999 246.5496 15.02388705334717
RS-44
1 44909U 19096E   26048.54621558  .00000029  00000-0  64225-4 0  9991
2 44909  82.5172  59.2055 0218602  64.2506 298.0981 12.79747204287042
SALSAT
1 46495U 20068K   26048.56804615  .00008380  00000-0  31164-3 0  9996
2 46495  97.8836  44.5397 0010574  13.8632 346.2894 15.27746009297086
CSS (TIANHE-1)
1 48274U 21035A   26048.80831589  .00024555  00000-0  30059-3 0  9999
2 48274  41.4680 329.0534 0004278 128.7072 231.4150 15.59796584274507
CUTE
1 49263U 21088D   26048.22769890  .00040212  00000-0  41298-3 0  9992
2 49263  97.4258 139.3167 0003857  36.3128 323.8392 15.64811500243670
TeikyoSat 4
1 49396U 21102B   26048.65027427  .00002159  00000-0  14022-3 0  9999
2 49396  97.3820  82.7266 0011851 352.5009   7.6041 15.09013590234698
Z-Sat
1 49399U 21102E   26048.86822244  .00003537  00000-0  18076-3 0  9999
2 49399  97.3490  87.7968 0015564 307.5784  52.4035 15.17208446235342
KOSEN 1
1 49402U 21102H   26048.66366119  .00007769  00000-0  31403-3 0  9996
2 49402  97.3368  93.1873 0012526 269.5597  90.4206 15.24940971235796
HO-113
1 50466U 21131B   26048.85673964  .00000549  00000-0  18370-3 0  9997
2 50466  98.4985 141.9248 0005277  96.5539 263.6250 14.41223360217924
SNUGLITE 2
1 52899U 22065F   26048.78412679  .00001093  00000-0  21728-3 0  9998
2 52899  98.1993 193.9727 0008181  45.8598 314.3276 14.64070481193520
